Location: *
(51.1248°S, 108.4023°W)
Time: 20:45:58
(UTC+00:00)

USA 281 - Pass Details

Date: 28 October 2021
Orbit: 1078 x 1081 km, 106.0° (Epoch: 25 November)

Event Time Altitude Azimuth Distance (km) Brightness Sun altitude
Exits shadow 03:29:32 - 14° (NNE) 3,282 5.3 -11.5°
Reaches altitude 10° 03:30:30 10° 12° (NNE) 2,926 5.0 -11.6°
Maximum altitude 03:37:00 60° 292° (WNW) 1,237 3.7 -12.4°
Drops below altitude 10° 03:43:35 10° 212° (SSW) 2,958 6.8 -13.2°
Sets 03:46:10 0° 208° (SSW) 3,920 7.6 -13.5°
